GFSSE_prec_precacc_180.txt.gz
Total_Precipitation_Accumulation
0.47 0.16 0.14 0.27 0.23 0.15 0.12 0.09 0.06 0.05 0.09 0.07 0.07 0.05 0.05 0.04 0.06 0.03 0.10 0.16 0.10 0.12 0.08 0.01 0.01 0.05 0.10 0.12 0.18 0.28 0.20 0.30 0.48 0.76 0.61 0.50 0.32 0.31 0.35 0.41 0.58 0.90 1.17
0.75 0.46 0.47 0.34 0.16 0.13 0.20 0.14 0.08 0.07 0.10 0.07 0.03 0.01 0.01 0.01 0.02 0.04 0.16 0.22 0.20 0.13 0.10 0.02 0.02 0.05 0.13 0.09 0.10 0.12 0.13 0.10 0.14 0.41 0.69 0.93 0.71 0.44 0.61 0.60 0.48 0.66 0.93
1.55 1.09 1.60 1.34 0.66 0.29 0.26 0.21 0.06 0.06 0.05 0.05 0.02 0.01 0.01 0.01 0.01 0.01 0.02 0.10 0.13 0.07 0.06 0.03 0.03 0.05 0.07 0.08 0.12 0.12 0.05 0.03 0.08 0.20 0.49 0.82 0.70 0.92 0.54 0.41 0.37 0.59 0.76
1.51 1.59 1.45 2.32 1.46 0.99 0.74 0.80 0.85 0.39 0.27 0.06 0.02 0.06 0.07 0.05 0.04 0.05 0.05 0.09 0.07 0.07 0.06 0.05 0.07 0.10 0.11 0.11 0.12 0.09 0.03 0.02 0.02 0.11 0.36 1.23 0.81 0.83 0.63 0.41 0.51 0.70 0.85
1.07 0.99 1.30 2.11 1.58 1.05 1.13 1.13 1.66 1.99 1.87 1.01 0.43 0.38 0.35 0.27 0.16 0.09 0.09 0.10 0.11 0.16 0.14 0.09 0.16 0.17 0.06 0.03 0.08 0.10 0.01 0.02 0.05 0.16 0.98 0.78 0.59 1.14 1.28 0.73 0.58 0.63 0.90
2.06 1.51 1.79 2.16 1.32 0.72 1.10 1.44 1.50 2.15 3.35 4.17 4.05 2.51 1.32 0.85 0.44 0.39 0.29 0.26 0.27 0.33 0.40 0.43 0.45 0.36 0.03 0.00 0.00 0.02 0.01 0.04 0.18 0.36 1.19 0.54 0.87 0.95 0.94 0.78 0.43 0.50 0.86
4.58 4.05 3.69 3.98 5.11 2.81 2.53 1.73 1.33 1.45 2.50 4.87 5.26 3.89 2.55 1.89 1.69 1.17 0.68 0.51 0.55 0.52 0.42 0.44 0.26 0.19 0.03 0.01 0.01 0.05 0.04 0.06 0.20 0.44 0.93 0.54 0.99 0.80 0.66 0.64 0.51 0.39 0.49
6.63 8.76 9.07 7.72 8.07 7.59 4.83 3.01 1.96 1.39 1.24 1.65 2.36 1.98 2.06 2.33 1.78 1.63 1.44 0.88 0.60 0.43 0.40 0.29 0.13 0.08 0.06 0.03 0.04 0.10 0.07 0.04 0.16 0.59 1.10 0.70 1.01 1.14 0.69 0.61 0.44 0.32 0.29
5.54 7.04 10.71 9.50 7.14 5.91 6.75 5.95 3.55 2.60 1.72 1.48 1.47 1.78 1.43 2.21 1.71 1.27 1.40 1.61 0.78 0.42 0.62 0.48 0.33 0.54 0.22 0.24 0.21 0.19 0.11 0.10 0.21 0.43 0.83 0.38 0.60 1.24 0.94 0.55 0.38 0.28 0.23
2.59 3.35 3.95 4.07 3.28 2.87 3.60 4.54 4.40 3.03 2.53 2.20 1.48 1.61 1.74 1.69 1.59 1.43 1.46 1.68 1.33 0.59 0.52 0.52 0.69 0.52 0.57 0.39 0.22 0.26 0.30 0.29 0.16 0.53 0.54 0.30 0.53 1.05 1.03 0.62 0.47 0.40 0.26
2.28 1.62 1.65 1.26 0.86 0.83 1.26 2.02 2.77 2.56 2.63 2.60 2.12 1.37 2.08 2.20 1.31 1.60 1.83 1.64 1.13 0.61 0.56 0.59 0.57 0.61 0.59 0.63 0.65 0.63 0.45 0.20 0.30 0.36 0.39 0.23 0.52 0.57 0.86 1.06 0.75 0.50 0.45
0.94 0.77 0.49 0.39 0.30 0.25 0.24 0.39 0.73 1.52 2.30 2.34 2.89 1.65 1.54 2.40 1.40 1.46 1.85 1.34 1.15 0.76 0.54 0.56 0.52 0.56 0.54 0.44 0.59 0.52 0.25 0.19 0.30 0.55 0.31 0.23 0.41 0.43 0.81 1.00 0.61 0.58 0.62
0.32 0.21 0.27 0.48 0.48 0.20 0.19 0.17 0.27 0.70 1.50 1.58 2.58 2.22 0.95 1.33 1.61 1.76 2.17 1.38 0.98 0.93 0.74 0.65 0.38 0.32 0.27 0.29 0.34 0.38 0.41 0.42 0.51 0.52 0.39 0.19 0.39 0.56 0.82 0.62 0.50 0.48 0.49
0.15 0.16 0.12 0.17 0.24 0.25 0.25 0.24 0.27 0.53 0.92 0.98 1.32 2.38 1.16 1.03 1.21 1.52 1.62 1.24 0.66 0.59 0.57 0.61 0.46 0.40 0.38 0.43 0.38 0.37 0.48 0.77 0.88 1.14 0.53 0.28 0.46 0.93 0.77 0.67 0.47 0.40 0.43
0.08 0.15 0.19 0.20 0.37 0.46 0.47 0.35 0.27 0.76 0.91 0.84 0.85 1.23 1.16 1.04 0.93 1.37 1.17 1.43 0.80 0.56 0.47 0.50 0.40 0.35 0.32 0.35 0.25 0.32 0.43 0.71 1.29 1.06 0.68 0.35 0.36 0.65 0.91 0.90 0.68 0.42 0.46
0.10 0.19 0.28 0.28 0.44 0.34 0.49 0.56 0.65 0.81 0.94 0.79 0.70 0.88 0.93 1.07 1.05 1.25 1.12 1.07 1.00 1.00 0.53 0.49 0.46 0.27 0.30 0.34 0.38 0.26 0.28 0.33 0.53 0.57 0.40 0.26 0.47 0.69 1.12 1.31 1.30 1.03 0.56
0.22 0.25 0.42 0.65 0.54 0.27 0.24 0.29 0.64 1.06 0.87 0.77 0.77 0.80 0.84 0.83 0.88 0.94 0.98 0.90 0.79 1.24 0.83 0.58 0.63 0.62 0.45 0.31 0.32 0.35 0.37 0.22 0.15 0.17 0.23 0.19 0.33 0.54 0.67 0.95 1.18 1.29 1.25
0.07 0.19 0.43 0.60 0.57 0.50 0.32 0.45 0.47 0.83 1.08 0.90 0.68 0.72 1.01 0.93 0.85 0.73 0.90 0.75 0.95 0.98 0.80 0.65 0.81 0.84 0.72 0.36 0.34 0.33 0.40 0.38 0.30 0.21 0.13 0.14 0.16 0.16 0.33 0.64 0.82 1.20 1.37
0.02 0.19 0.61 0.80 0.77 0.74 0.64 0.64 0.90 0.87 0.92 0.72 0.74 0.66 0.64 0.64 0.85 0.73 0.75 0.91 1.17 1.27 1.15 1.15 1.03 0.99 0.76 0.59 0.36 0.25 0.26 0.27 0.17 0.18 0.10 0.06 0.07 0.10 0.13 0.30 0.50 0.69 1.25
0.03 0.26 0.64 0.84 1.09 1.18 1.10 0.96 0.77 0.73 0.66 0.67 0.60 0.64 0.73 0.76 0.72 0.84 0.76 0.75 1.02 1.33 1.02 0.93 0.79 0.80 0.71 0.64 0.46 0.40 0.37 0.33 0.21 0.12 0.09 0.06 0.05 0.09 0.13 0.15 0.29 0.33 0.43
0.10 0.40 0.69 0.82 1.10 1.07 0.60 0.50 0.53 0.52 0.40 0.55 0.57 0.64 0.81 1.02 1.01 0.91 0.83 0.81 0.94 0.97 0.94 1.15 1.38 1.56 1.32 0.89 0.75 0.65 0.45 0.36 0.29 0.17 0.10 0.09 0.07 0.07 0.10 0.12 0.18 0.29 0.26
0.24 0.52 0.61 0.48 0.33 0.16 0.11 0.21 0.36 0.47 0.48 0.46 0.54 0.71 0.67 0.99 1.00 0.85 0.86 0.85 0.99 1.09 0.99 0.79 0.87 0.97 0.97 0.88 0.80 0.71 0.68 0.59 0.45 0.25 0.12 0.08 0.07 0.09 0.12 0.13 0.14 0.21 0.28
0.15 0.15 0.09 0.06 0.05 0.09 0.12 0.31 0.53 0.86 0.80 0.67 0.54 0.57 0.73 0.91 1.08 0.98 0.88 0.78 0.79 1.17 1.42 1.19 1.07 1.02 0.87 0.84 0.69 0.67 0.74 0.60 0.37 0.31 0.24 0.11 0.11 0.11 0.12 0.20 0.19 0.23 0.26
0.01 0.09 0.07 0.07 0.08 0.12 0.14 0.24 0.41 0.41 0.31 0.23 0.23 0.28 0.41 0.75 1.13 0.93 1.17 1.24 1.16 0.93 1.08 1.44 1.39 1.18 1.20 1.17 1.17 0.90 0.61 0.68 0.65 0.60 0.34 0.32 0.21 0.23 0.22 0.25 0.31 0.40 0.33
0.02 0.07 0.09 0.11 0.11 0.09 0.12 0.19 0.48 0.55 0.52 0.50 0.61 0.77 0.89 1.05 1.37 1.33 1.13 1.56 1.67 1.59 1.25 1.52 1.85 2.00 1.81 1.77 1.64 1.43 1.29 1.20 1.05 0.91 0.72 0.58 0.62 0.47 0.43 0.45 0.45 0.52 0.54
0.04 0.06 0.05 0.13 0.10 0.16 0.21 0.25 0.36 0.49 0.54 0.55 0.56 0.64 0.80 1.03 1.37 1.55 1.76 1.79 2.24 2.23 2.02 1.72 1.68 2.05 2.41 2.30 1.92 1.87 1.49 1.30 1.13 1.23 0.96 0.76 0.94 0.93 0.79 0.79 0.69 0.66 0.81

GFSSE_prec_precacc_186.txt.gz
Total_Precipitation_Accumulation
0.47 0.16 0.14 0.27 0.23 0.15 0.13 0.09 0.06 0.05 0.09 0.07 0.07 0.05 0.05 0.04 0.06 0.04 0.11 0.16 0.10 0.12 0.08 0.01 0.01 0.05 0.10 0.12 0.18 0.28 0.20 0.30 0.48 0.76 0.61 0.50 0.32 0.31 0.35 0.41 0.58 0.94 1.17
0.75 0.46 0.47 0.34 0.17 0.14 0.21 0.15 0.09 0.07 0.10 0.07 0.03 0.01 0.01 0.01 0.02 0.04 0.16 0.22 0.20 0.14 0.10 0.02 0.02 0.05 0.13 0.09 0.10 0.12 0.13 0.10 0.14 0.41 0.69 0.93 0.71 0.44 0.61 0.60 0.48 0.67 0.93
1.55 1.09 1.60 1.34 0.67 0.29 0.26 0.22 0.08 0.08 0.05 0.05 0.02 0.01 0.01 0.01 0.01 0.02 0.03 0.11 0.13 0.07 0.06 0.03 0.04 0.05 0.07 0.08 0.12 0.12 0.05 0.03 0.08 0.20 0.49 0.82 0.70 0.93 0.54 0.41 0.37 0.59 0.76
1.52 1.60 1.47 2.32 1.46 0.99 0.74 0.80 0.85 0.41 0.29 0.08 0.06 0.09 0.09 0.06 0.06 0.07 0.05 0.10 0.08 0.08 0.08 0.08 0.10 0.12 0.11 0.11 0.12 0.09 0.03 0.02 0.02 0.11 0.36 1.23 0.82 0.84 0.64 0.41 0.51 0.70 0.85
1.08 1.01 1.31 2.12 1.58 1.05 1.13 1.13 1.67 1.99 1.88 1.02 0.44 0.39 0.36 0.27 0.16 0.09 0.09 0.10 0.11 0.16 0.14 0.10 0.16 0.17 0.06 0.03 0.08 0.11 0.01 0.02 0.05 0.16 0.98 0.78 0.59 1.14 1.28 0.73 0.58 0.63 0.90
2.07 1.53 1.79 2.16 1.32 0.72 1.11 1.44 1.50 2.16 3.35 4.17 4.05 2.51 1.32 0.85 0.44 0.39 0.29 0.26 0.27 0.33 0.40 0.43 0.45 0.36 0.03 0.01 0.00 0.02 0.01 0.04 0.18 0.36 1.19 0.55 0.88 0.95 0.94 0.78 0.43 0.50 0.86
4.59 4.05 3.70 3.99 5.11 2.81 2.53 1.73 1.33 1.45 2.50 4.87 5.26 3.89 2.55 1.89 1.69 1.17 0.68 0.51 0.55 0.52 0.42 0.44 0.26 0.19 0.03 0.01 0.01 0.05 0.04 0.06 0.20 0.44 0.94 0.55 0.99 0.80 0.66 0.64 0.51 0.40 0.50
6.63 8.76 9.07 7.73 8.07 7.60 4.83 3.01 1.96 1.39 1.24 1.65 2.36 1.98 2.06 2.33 1.78 1.63 1.44 0.88 0.60 0.43 0.40 0.29 0.13 0.08 0.06 0.03 0.04 0.10 0.07 0.04 0.16 0.60 1.17 0.81 1.03 1.14 0.69 0.61 0.44 0.32 0.31
5.54 7.05 10.72 9.53 7.15 5.91 6.75 5.95 3.55 2.60 1.72 1.48 1.47 1.78 1.43 2.21 1.71 1.27 1.40 1.61 0.78 0.42 0.62 0.48 0.33 0.54 0.22 0.24 0.21 0.19 0.11 0.10 0.21 0.44 0.89 0.57 0.78 1.33 0.95 0.56 0.38 0.28 0.24
2.59 3.36 3.96 4.07 3.29 2.90 3.61 4.55 4.40 3.03 2.53 2.20 1.48 1.61 1.74 1.69 1.59 1.43 1.46 1.68 1.33 0.59 0.52 0.52 0.69 0.52 0.57 0.39 0.22 0.26 0.30 0.29 0.16 0.54 0.58 0.35 0.64 1.12 1.09 0.64 0.49 0.41 0.27
2.28 1.62 1.67 1.27 0.87 0.84 1.27 2.02 2.77 2.56 2.63 2.60 2.12 1.37 2.08 2.20 1.31 1.60 1.83 1.64 1.13 0.61 0.56 0.59 0.57 0.61 0.59 0.63 0.65 0.63 0.45 0.20 0.30 0.36 0.39 0.23 0.54 0.62 0.92 1.10 0.78 0.51 0.45
0.94 0.77 0.49 0.39 0.30 0.25 0.24 0.39 0.73 1.52 2.30 2.34 2.89 1.65 1.54 2.40 1.40 1.46 1.85 1.34 1.15 0.76 0.54 0.56 0.52 0.56 0.54 0.44 0.59 0.52 0.25 0.19 0.30 0.55 0.31 0.23 0.41 0.44 0.81 1.02 0.64 0.62 0.65
0.32 0.21 0.27 0.48 0.48 0.20 0.19 0.17 0.27 0.70 1.50 1.58 2.58 2.22 0.95 1.33 1.61 1.76 2.17 1.38 0.98 0.93 0.74 0.65 0.38 0.32 0.27 0.29 0.34 0.38 0.41 0.42 0.51 0.52 0.39 0.19 0.39 0.56 0.82 0.63 0.52 0.52 0.52
0.15 0.16 0.12 0.17 0.24 0.25 0.25 0.24 0.27 0.53 0.92 0.98 1.32 2.38 1.16 1.03 1.21 1.52 1.62 1.24 0.66 0.59 0.57 0.61 0.46 0.40 0.38 0.43 0.38 0.37 0.48 0.77 0.88 1.14 0.53 0.28 0.46 0.93 0.77 0.67 0.48 0.42 0.46
0.08 0.15 0.19 0.20 0.37 0.46 0.47 0.35 0.27 0.76 0.91 0.84 0.85 1.23 1.16 1.04 0.93 1.37 1.17 1.43 0.80 0.56 0.47 0.50 0.40 0.35 0.32 0.35 0.25 0.32 0.43 0.71 1.29 1.06 0.68 0.35 0.36 0.65 0.91 0.90 0.68 0.43 0.47
0.10 0.19 0.28 0.28 0.44 0.34 0.49 0.56 0.65 0.81 0.94 0.79 0.70 0.88 0.93 1.07 1.05 1.25 1.12 1.07 1.00 1.00 0.53 0.49 0.46 0.27 0.30 0.34 0.38 0.26 0.28 0.33 0.53 0.57 0.40 0.26 0.47 0.69 1.12 1.31 1.30 1.03 0.57
0.22 0.25 0.42 0.65 0.54 0.27 0.24 0.29 0.64 1.06 0.87 0.77 0.77 0.80 0.84 0.83 0.88 0.94 0.98 0.90 0.79 1.24 0.83 0.58 0.63 0.62 0.45 0.31 0.32 0.35 0.37 0.22 0.15 0.17 0.23 0.19 0.33 0.54 0.67 0.95 1.18 1.29 1.25
0.07 0.19 0.43 0.60 0.57 0.50 0.32 0.45 0.47 0.83 1.08 0.90 0.68 0.72 1.01 0.93 0.85 0.73 0.90 0.75 0.95 0.98 0.80 0.65 0.81 0.84 0.72 0.36 0.34 0.33 0.40 0.38 0.30 0.21 0.13 0.14 0.16 0.16 0.33 0.64 0.82 1.20 1.37
0.02 0.19 0.61 0.80 0.77 0.74 0.64 0.64 0.90 0.87 0.92 0.72 0.74 0.66 0.64 0.64 0.85 0.73 0.75 0.91 1.17 1.27 1.15 1.15 1.03 0.99 0.76 0.59 0.36 0.25 0.26 0.27 0.17 0.18 0.10 0.06 0.07 0.10 0.13 0.30 0.50 0.69 1.25
0.03 0.26 0.64 0.84 1.09 1.18 1.10 0.96 0.77 0.73 0.66 0.67 0.60 0.64 0.73 0.76 0.72 0.84 0.76 0.75 1.02 1.33 1.02 0.93 0.79 0.80 0.71 0.64 0.46 0.40 0.37 0.33 0.21 0.12 0.09 0.06 0.05 0.09 0.13 0.15 0.29 0.33 0.43
0.10 0.40 0.69 0.82 1.10 1.07 0.60 0.50 0.53 0.52 0.40 0.55 0.57 0.64 0.81 1.02 1.01 0.91 0.83 0.81 0.94 0.97 0.94 1.15 1.38 1.56 1.32 0.89 0.75 0.65 0.45 0.36 0.29 0.17 0.10 0.09 0.07 0.07 0.10 0.12 0.18 0.29 0.26
0.24 0.52 0.61 0.48 0.33 0.16 0.11 0.21 0.36 0.47 0.48 0.46 0.54 0.71 0.67 0.99 1.00 0.85 0.86 0.85 0.99 1.09 0.99 0.79 0.87 0.97 0.97 0.88 0.80 0.71 0.68 0.59 0.45 0.25 0.12 0.08 0.07 0.09 0.12 0.13 0.14 0.21 0.28
0.15 0.15 0.09 0.06 0.05 0.09 0.12 0.31 0.53 0.86 0.80 0.67 0.54 0.57 0.73 0.91 1.08 0.98 0.88 0.78 0.79 1.17 1.42 1.19 1.07 1.02 0.87 0.84 0.69 0.67 0.74 0.60 0.37 0.31 0.24 0.11 0.11 0.11 0.12 0.20 0.19 0.23 0.26
0.01 0.09 0.07 0.07 0.08 0.12 0.14 0.24 0.41 0.41 0.31 0.23 0.23 0.28 0.41 0.75 1.13 0.93 1.17 1.24 1.16 0.93 1.08 1.44 1.39 1.18 1.20 1.17 1.17 0.90 0.61 0.68 0.65 0.60 0.34 0.32 0.21 0.23 0.22 0.25 0.31 0.40 0.33
0.02 0.07 0.09 0.11 0.11 0.09 0.12 0.19 0.48 0.55 0.52 0.50 0.61 0.77 0.89 1.05 1.37 1.33 1.13 1.56 1.67 1.59 1.25 1.52 1.85 2.00 1.81 1.77 1.64 1.43 1.29 1.20 1.05 0.91 0.72 0.58 0.62 0.47 0.43 0.45 0.45 0.52 0.54
0.04 0.06 0.05 0.13 0.10 0.16 0.21 0.25 0.36 0.49 0.54 0.55 0.56 0.64 0.80 1.03 1.37 1.55 1.76 1.79 2.24 2.23 2.02 1.72 1.68 2.05 2.41 2.30 1.92 1.87 1.49 1.30 1.13 1.23 0.96 0.76 0.94 0.93 0.79 0.79 0.69 0.66 0.81

GFSSE_prec_precacc_189.txt.gz
Total_Precipitation_Accumulation
0.47 0.16 0.14 0.27 0.23 0.15 0.13 0.09 0.06 0.05 0.09 0.07 0.07 0.05 0.05 0.04 0.06 0.04 0.11 0.16 0.10 0.12 0.08 0.01 0.01 0.05 0.10 0.12 0.18 0.28 0.20 0.30 0.48 0.76 0.61 0.50 0.32 0.31 0.35 0.41 0.58 0.94 1.17
0.75 0.46 0.47 0.34 0.17 0.14 0.21 0.15 0.09 0.07 0.10 0.07 0.03 0.01 0.01 0.01 0.02 0.04 0.16 0.22 0.20 0.14 0.10 0.02 0.02 0.05 0.13 0.09 0.10 0.12 0.13 0.10 0.14 0.41 0.69 0.93 0.71 0.46 0.62 0.60 0.48 0.67 0.93
1.55 1.09 1.60 1.34 0.67 0.29 0.26 0.22 0.08 0.08 0.05 0.05 0.02 0.01 0.01 0.01 0.01 0.02 0.03 0.11 0.13 0.08 0.06 0.04 0.04 0.06 0.08 0.08 0.12 0.12 0.05 0.03 0.08 0.20 0.49 0.82 0.72 0.99 0.59 0.41 0.37 0.59 0.76
1.52 1.60 1.47 2.32 1.46 0.99 0.74 0.81 0.86 0.41 0.29 0.08 0.06 0.09 0.10 0.07 0.06 0.07 0.05 0.10 0.08 0.08 0.08 0.08 0.10 0.12 0.11 0.11 0.12 0.09 0.03 0.02 0.02 0.11 0.36 1.23 0.83 0.90 0.65 0.41 0.51 0.70 0.85
1.08 1.01 1.31 2.12 1.59 1.05 1.13 1.14 1.67 1.99 1.88 1.02 0.45 0.39 0.36 0.28 0.17 0.09 0.09 0.10 0.11 0.16 0.14 0.10 0.16 0.17 0.06 0.03 0.08 0.11 0.01 0.02 0.05 0.16 0.99 0.78 0.66 1.25 1.33 0.74 0.58 0.63 0.90
2.07 1.53 1.79 2.16 1.32 0.72 1.11 1.45 1.50 2.16 3.35 4.17 4.05 2.51 1.32 0.85 0.44 0.39 0.29 0.26 0.27 0.33 0.40 0.43 0.45 0.36 0.03 0.01 0.00 0.02 0.01 0.04 0.18 0.36 1.20 0.56 0.93 1.09 1.02 0.80 0.43 0.50 0.86
4.59 4.05 3.70 3.99 5.11 2.81 2.53 1.73 1.33 1.45 2.50 4.87 5.26 3.89 2.55 1.89 1.69 1.17 0.68 0.51 0.55 0.52 0.42 0.44 0.26 0.19 0.03 0.01 0.01 0.05 0.04 0.06 0.20 0.44 0.95 0.58 1.09 0.95 0.70 0.66 0.54 0.40 0.50
6.63 8.76 9.07 7.73 8.07 7.60 4.83 3.01 1.96 1.39 1.24 1.65 2.36 1.98 2.06 2.33 1.78 1.63 1.44 0.88 0.60 0.43 0.40 0.29 0.13 0.08 0.06 0.03 0.04 0.10 0.07 0.04 0.16 0.60 1.20 0.82 1.07 1.17 0.70 0.62 0.45 0.33 0.31
5.54 7.05 10.72 9.53 7.15 5.91 6.75 5.95 3.55 2.60 1.72 1.48 1.47 1.78 1.43 2.21 1.71 1.27 1.40 1.61 0.78 0.42 0.62 0.48 0.33 0.54 0.22 0.24 0.21 0.19 0.11 0.10 0.21 0.44 0.90 0.59 0.81 1.38 0.96 0.57 0.40 0.29 0.24
2.59 3.36 3.96 4.07 3.29 2.90 3.61 4.55 4.40 3.03 2.53 2.20 1.48 1.61 1.74 1.69 1.59 1.43 1.46 1.68 1.33 0.59 0.52 0.52 0.69 0.52 0.57 0.39 0.22 0.26 0.30 0.29 0.16 0.54 0.58 0.35 0.64 1.12 1.09 0.65 0.51 0.41 0.27
2.28 1.62 1.67 1.27 0.87 0.84 1.27 2.02 2.77 2.56 2.63 2.60 2.12 1.37 2.08 2.20 1.31 1.60 1.83 1.64 1.13 0.61 0.56 0.59 0.57 0.61 0.59 0.63 0.65 0.63 0.45 0.20 0.30 0.36 0.39 0.23 0.54 0.62 0.92 1.10 0.78 0.52 0.46
0.94 0.77 0.49 0.39 0.30 0.25 0.24 0.39 0.73 1.52 2.30 2.34 2.89 1.65 1.54 2.40 1.40 1.46 1.85 1.34 1.15 0.76 0.54 0.56 0.52 0.56 0.54 0.44 0.59 0.52 0.25 0.19 0.30 0.55 0.31 0.23 0.41 0.44 0.81 1.02 0.65 0.63 0.66
0.32 0.21 0.27 0.48 0.48 0.20 0.19 0.17 0.27 0.70 1.50 1.58 2.58 2.22 0.95 1.33 1.61 1.76 2.17 1.38 0.98 0.93 0.74 0.65 0.38 0.32 0.27 0.29 0.34 0.38 0.41 0.42 0.51 0.52 0.39 0.19 0.39 0.56 0.82 0.63 0.53 0.52 0.53
0.15 0.16 0.12 0.17 0.24 0.25 0.25 0.24 0.27 0.53 0.92 0.98 1.32 2.38 1.16 1.03 1.21 1.52 1.62 1.24 0.66 0.59 0.57 0.61 0.46 0.40 0.38 0.43 0.38 0.37 0.48 0.77 0.88 1.14 0.53 0.28 0.46 0.93 0.77 0.67 0.48 0.42 0.46
0.08 0.15 0.19 0.20 0.37 0.46 0.47 0.35 0.27 0.76 0.91 0.84 0.85 1.23 1.16 1.04 0.93 1.37 1.17 1.43 0.80 0.56 0.47 0.50 0.40 0.35 0.32 0.35 0.25 0.32 0.43 0.71 1.29 1.06 0.68 0.35 0.36 0.65 0.91 0.90 0.68 0.43 0.48
0.10 0.19 0.28 0.28 0.44 0.34 0.49 0.56 0.65 0.81 0.94 0.79 0.70 0.88 0.93 1.07 1.05 1.25 1.12 1.07 1.00 1.00 0.53 0.49 0.46 0.27 0.30 0.34 0.38 0.26 0.28 0.33 0.53 0.57 0.40 0.26 0.47 0.69 1.12 1.31 1.30 1.03 0.58
0.22 0.25 0.42 0.65 0.54 0.27 0.24 0.29 0.64 1.06 0.87 0.77 0.77 0.80 0.84 0.83 0.88 0.94 0.98 0.90 0.79 1.24 0.83 0.58 0.63 0.62 0.45 0.31 0.32 0.35 0.37 0.22 0.15 0.17 0.23 0.19 0.33 0.54 0.67 0.95 1.18 1.29 1.25
0.07 0.19 0.43 0.60 0.57 0.50 0.32 0.45 0.47 0.83 1.08 0.90 0.68 0.72 1.01 0.93 0.85 0.73 0.90 0.75 0.95 0.98 0.80 0.65 0.81 0.84 0.72 0.36 0.34 0.33 0.40 0.38 0.30 0.21 0.13 0.14 0.16 0.16 0.33 0.64 0.82 1.20 1.37
0.02 0.19 0.61 0.80 0.77 0.74 0.64 0.64 0.90 0.87 0.92 0.72 0.74 0.66 0.64 0.64 0.85 0.73 0.75 0.91 1.17 1.27 1.15 1.15 1.03 0.99 0.76 0.59 0.36 0.25 0.26 0.27 0.17 0.18 0.10 0.06 0.07 0.10 0.13 0.30 0.50 0.69 1.25
0.03 0.26 0.64 0.84 1.09 1.18 1.10 0.96 0.77 0.73 0.66 0.67 0.60 0.64 0.73 0.76 0.72 0.84 0.76 0.75 1.02 1.33 1.02 0.93 0.79 0.80 0.71 0.64 0.46 0.40 0.37 0.33 0.21 0.12 0.09 0.06 0.05 0.09 0.13 0.15 0.29 0.33 0.43
0.10 0.40 0.69 0.82 1.10 1.07 0.60 0.50 0.53 0.52 0.40 0.55 0.57 0.64 0.81 1.02 1.01 0.91 0.83 0.81 0.94 0.97 0.94 1.15 1.38 1.56 1.32 0.89 0.75 0.65 0.45 0.36 0.29 0.17 0.10 0.09 0.07 0.07 0.10 0.12 0.18 0.29 0.26
0.24 0.52 0.61 0.48 0.33 0.16 0.11 0.21 0.36 0.47 0.48 0.46 0.54 0.71 0.67 0.99 1.00 0.85 0.86 0.85 0.99 1.09 0.99 0.79 0.87 0.97 0.97 0.88 0.80 0.71 0.68 0.59 0.45 0.25 0.12 0.08 0.07 0.09 0.12 0.13 0.14 0.21 0.28
0.15 0.15 0.09 0.06 0.05 0.09 0.12 0.31 0.53 0.86 0.80 0.67 0.54 0.57 0.73 0.91 1.08 0.98 0.88 0.78 0.79 1.17 1.42 1.19 1.07 1.02 0.87 0.84 0.69 0.67 0.74 0.60 0.37 0.31 0.24 0.11 0.11 0.11 0.12 0.20 0.19 0.23 0.26
0.01 0.09 0.07 0.07 0.08 0.12 0.14 0.24 0.41 0.41 0.31 0.23 0.23 0.28 0.41 0.75 1.13 0.93 1.17 1.24 1.16 0.93 1.08 1.44 1.39 1.18 1.20 1.17 1.17 0.90 0.61 0.68 0.65 0.60 0.34 0.32 0.21 0.23 0.22 0.25 0.31 0.40 0.33
0.02 0.07 0.09 0.11 0.11 0.09 0.12 0.19 0.48 0.55 0.52 0.50 0.61 0.77 0.89 1.05 1.37 1.33 1.13 1.56 1.67 1.59 1.25 1.52 1.85 2.00 1.81 1.77 1.64 1.43 1.29 1.20 1.05 0.91 0.72 0.58 0.62 0.47 0.43 0.45 0.45 0.52 0.54
0.04 0.06 0.05 0.13 0.10 0.16 0.21 0.25 0.36 0.49 0.54 0.55 0.56 0.64 0.80 1.03 1.37 1.55 1.76 1.79 2.24 2.23 2.02 1.72 1.68 2.05 2.41 2.30 1.92 1.87 1.49 1.30 1.13 1.23 0.96 0.76 0.94 0.93 0.79 0.79 0.69 0.66 0.81

GFSSE_prec_precacc_195.txt.gz
Total_Precipitation_Accumulation
0.47 0.16 0.14 0.27 0.23 0.15 0.13 0.09 0.06 0.05 0.09 0.07 0.07 0.05 0.05 0.04 0.06 0.04 0.11 0.16 0.10 0.12 0.08 0.01 0.01 0.05 0.10 0.12 0.18 0.28 0.20 0.30 0.48 0.76 0.61 0.50 0.34 0.31 0.36 0.44 0.59 0.94 1.17
0.75 0.47 0.47 0.34 0.17 0.14 0.21 0.15 0.09 0.07 0.10 0.07 0.03 0.01 0.01 0.01 0.02 0.04 0.16 0.22 0.20 0.14 0.11 0.02 0.03 0.06 0.13 0.09 0.10 0.12 0.13 0.10 0.14 0.41 0.69 0.93 0.73 0.50 0.64 0.62 0.49 0.67 0.93
1.56 1.09 1.60 1.34 0.67 0.29 0.26 0.22 0.08 0.08 0.05 0.05 0.02 0.01 0.01 0.01 0.01 0.02 0.03 0.11 0.13 0.08 0.07 0.04 0.05 0.07 0.08 0.09 0.12 0.12 0.05 0.03 0.08 0.20 0.49 0.82 0.72 1.02 0.62 0.42 0.38 0.60 0.76
1.52 1.61 1.47 2.32 1.46 0.99 0.74 0.81 0.86 0.41 0.29 0.08 0.06 0.09 0.10 0.07 0.06 0.08 0.06 0.10 0.08 0.08 0.08 0.08 0.11 0.13 0.12 0.11 0.12 0.09 0.03 0.02 0.02 0.11 0.36 1.23 0.83 0.91 0.70 0.44 0.54 0.70 0.85
1.09 1.01 1.31 2.12 1.59 1.05 1.14 1.14 1.67 1.99 1.88 1.03 0.45 0.40 0.37 0.28 0.18 0.10 0.10 0.10 0.11 0.16 0.14 0.10 0.16 0.17 0.07 0.03 0.08 0.11 0.01 0.02 0.05 0.16 0.99 0.78 0.66 1.28 1.39 0.80 0.65 0.65 0.90
2.07 1.53 1.79 2.16 1.32 0.73 1.11 1.45 1.51 2.16 3.35 4.17 4.06 2.52 1.33 0.86 0.45 0.40 0.29 0.26 0.27 0.33 0.40 0.43 0.45 0.36 0.03 0.01 0.00 0.02 0.01 0.04 0.18 0.36 1.20 0.56 0.93 1.13 1.13 0.96 0.50 0.54 0.86
4.59 4.05 3.70 3.99 5.11 2.82 2.54 1.73 1.34 1.46 2.50 4.87 5.27 3.89 2.55 1.90 1.69 1.17 0.68 0.51 0.55 0.52 0.42 0.44 0.26 0.19 0.03 0.01 0.01 0.05 0.04 0.06 0.20 0.44 0.95 0.58 1.10 1.06 0.95 0.84 0.66 0.48 0.54
6.63 8.76 9.07 7.73 8.08 7.61 4.83 3.01 1.97 1.40 1.24 1.65 2.36 1.98 2.06 2.33 1.78 1.63 1.44 0.88 0.60 0.43 0.40 0.29 0.13 0.08 0.06 0.03 0.04 0.10 0.07 0.04 0.16 0.60 1.20 0.82 1.07 1.21 0.74 0.62 0.45 0.34 0.32
5.54 7.05 10.72 9.53 7.15 5.92 6.75 5.95 3.55 2.61 1.73 1.49 1.47 1.78 1.43 2.21 1.71 1.27 1.40 1.61 0.78 0.42 0.62 0.48 0.33 0.54 0.22 0.24 0.21 0.19 0.11 0.10 0.21 0.44 0.90 0.59 0.81 1.38 0.96 0.57 0.40 0.29 0.24
2.59 3.36 3.96 4.07 3.29 2.90 3.61 4.56 4.41 3.03 2.54 2.21 1.48 1.61 1.74 1.69 1.59 1.43 1.46 1.68 1.33 0.59 0.52 0.52 0.69 0.52 0.57 0.39 0.22 0.26 0.30 0.29 0.16 0.54 0.58 0.35 0.64 1.12 1.09 0.65 0.51 0.42 0.28
2.28 1.62 1.67 1.27 0.87 0.84 1.27 2.02 2.77 2.56 2.64 2.60 2.12 1.37 2.08 2.20 1.31 1.60 1.83 1.64 1.13 0.61 0.56 0.59 0.57 0.61 0.59 0.63 0.65 0.63 0.45 0.20 0.30 0.36 0.39 0.23 0.54 0.62 0.92 1.10 0.79 0.53 0.47
0.94 0.77 0.49 0.39 0.30 0.25 0.24 0.39 0.73 1.53 2.30 2.35 2.90 1.66 1.54 2.40 1.40 1.46 1.85 1.34 1.15 0.76 0.54 0.56 0.52 0.56 0.54 0.44 0.59 0.52 0.25 0.19 0.30 0.55 0.31 0.23 0.41 0.44 0.81 1.02 0.66 0.65 0.68
0.32 0.21 0.27 0.48 0.48 0.20 0.19 0.17 0.27 0.71 1.51 1.60 2.60 2.23 0.95 1.33 1.61 1.76 2.17 1.38 0.98 0.93 0.74 0.65 0.38 0.32 0.27 0.29 0.34 0.38 0.41 0.42 0.51 0.52 0.39 0.19 0.39 0.56 0.82 0.64 0.53 0.53 0.55
0.15 0.16 0.12 0.17 0.24 0.25 0.25 0.24 0.27 0.53 0.95 1.00 1.33 2.38 1.16 1.03 1.21 1.52 1.62 1.24 0.66 0.59 0.57 0.61 0.46 0.40 0.38 0.43 0.38 0.37 0.48 0.77 0.88 1.14 0.53 0.28 0.46 0.93 0.77 0.68 0.51 0.45 0.47
0.08 0.15 0.19 0.20 0.37 0.46 0.47 0.35 0.27 0.77 0.92 0.84 0.85 1.23 1.16 1.04 0.93 1.37 1.17 1.43 0.80 0.56 0.47 0.50 0.40 0.35 0.32 0.35 0.25 0.32 0.43 0.71 1.29 1.06 0.68 0.35 0.36 0.65 0.91 0.90 0.70 0.46 0.51
0.10 0.19 0.28 0.28 0.44 0.34 0.49 0.56 0.65 0.81 0.94 0.79 0.70 0.88 0.93 1.07 1.05 1.25 1.12 1.07 1.00 1.00 0.53 0.49 0.46 0.27 0.30 0.34 0.38 0.26 0.28 0.33 0.53 0.57 0.40 0.26 0.47 0.69 1.12 1.32 1.30 1.04 0.59
0.22 0.25 0.42 0.65 0.54 0.27 0.24 0.29 0.64 1.06 0.87 0.77 0.77 0.80 0.84 0.83 0.88 0.94 0.98 0.90 0.79 1.24 0.83 0.58 0.63 0.62 0.45 0.31 0.32 0.35 0.37 0.22 0.15 0.17 0.23 0.19 0.33 0.54 0.67 0.95 1.19 1.30 1.26
0.07 0.19 0.43 0.60 0.57 0.50 0.32 0.45 0.47 0.83 1.08 0.90 0.68 0.72 1.01 0.93 0.85 0.73 0.90 0.75 0.95 0.98 0.80 0.65 0.81 0.84 0.72 0.36 0.34 0.33 0.40 0.38 0.30 0.21 0.13 0.14 0.16 0.16 0.33 0.64 0.82 1.21 1.38
0.02 0.19 0.61 0.80 0.77 0.74 0.64 0.64 0.90 0.87 0.92 0.72 0.74 0.66 0.64 0.64 0.85 0.73 0.75 0.91 1.17 1.27 1.15 1.15 1.03 0.99 0.76 0.59 0.36 0.25 0.26 0.27 0.17 0.18 0.10 0.06 0.07 0.10 0.13 0.30 0.50 0.70 1.25
0.03 0.26 0.64 0.84 1.09 1.18 1.10 0.96 0.77 0.73 0.66 0.67 0.60 0.64 0.73 0.76 0.72 0.84 0.76 0.75 1.02 1.33 1.02 0.93 0.79 0.80 0.71 0.64 0.46 0.40 0.37 0.33 0.21 0.12 0.09 0.06 0.05 0.09 0.13 0.15 0.29 0.33 0.43
0.10 0.40 0.69 0.82 1.10 1.07 0.60 0.50 0.53 0.52 0.40 0.55 0.57 0.64 0.81 1.02 1.01 0.91 0.83 0.81 0.94 0.97 0.94 1.15 1.38 1.56 1.32 0.89 0.75 0.65 0.45 0.36 0.29 0.17 0.10 0.09 0.07 0.07 0.10 0.12 0.18 0.29 0.26
0.24 0.52 0.61 0.48 0.33 0.16 0.11 0.21 0.36 0.47 0.48 0.46 0.54 0.71 0.67 0.99 1.00 0.85 0.86 0.85 0.99 1.09 0.99 0.79 0.87 0.97 0.97 0.88 0.80 0.71 0.68 0.59 0.45 0.25 0.12 0.08 0.07 0.09 0.12 0.13 0.14 0.21 0.28
0.15 0.16 0.12 0.09 0.06 0.09 0.12 0.31 0.53 0.86 0.80 0.67 0.54 0.57 0.73 0.91 1.08 0.98 0.88 0.78 0.79 1.17 1.42 1.19 1.07 1.02 0.87 0.84 0.69 0.67 0.74 0.60 0.37 0.31 0.24 0.11 0.11 0.11 0.12 0.20 0.19 0.23 0.26
0.03 0.14 0.14 0.12 0.11 0.12 0.14 0.24 0.41 0.41 0.31 0.23 0.23 0.28 0.41 0.75 1.13 0.93 1.17 1.24 1.16 0.93 1.08 1.44 1.39 1.18 1.20 1.17 1.17 0.90 0.61 0.68 0.65 0.60 0.34 0.32 0.21 0.23 0.22 0.25 0.31 0.40 0.33
0.09 0.15 0.17 0.15 0.14 0.10 0.12 0.19 0.48 0.55 0.52 0.50 0.61 0.77 0.89 1.05 1.37 1.33 1.13 1.56 1.67 1.59 1.25 1.52 1.85 2.00 1.81 1.77 1.64 1.43 1.29 1.20 1.05 0.91 0.72 0.58 0.62 0.47 0.43 0.45 0.45 0.52 0.54
0.13 0.17 0.13 0.19 0.19 0.23 0.22 0.25 0.36 0.49 0.54 0.55 0.56 0.64 0.80 1.03 1.37 1.55 1.76 1.79 2.24 2.23 2.02 1.72 1.68 2.05 2.41 2.30 1.92 1.87 1.49 1.30 1.13 1.23 0.96 0.76 0.94 0.93 0.79 0.79 0.69 0.66 0.81